Location: ?th?r Mad?nat Amb?s
(24.4520°N, 32.9283°E)
Time: 06:22:39
(UTC+00:00)

Daily predictions for brighter satellites

Satellite Brightness Start Highest point End
(mag) Time Altitude Azimuth Time Altitude Azimuth Time Altitude Azimuth
CZ-4B R/B 4.4 15:50:12 10° ESE 15:54:00 20° ENE 15:57:50 10° NNE
Cosmos 1733 Rocket 3.5 15:50:45 10° SSE 15:54:52 40° E 15:59:00 10° NNE
Hubble Space Telescope 1.4 15:53:43 10° WNW 15:57:40 46° N 16:01:37 10° ENE
Cosmos 2227 Rocket 2.7 15:52:29 10° N 15:57:42 37° ENE 16:02:53 10° SE
FALCON 9 R/B 0.3 15:56:08 10° WNW 15:58:29 39° N 16:00:05 10° ENE
Cosmos 1850 Rocket 4.0 15:54:14 10° S 15:59:20 63° ESE 16:04:29 10° NNE
Okean 1-7 4.3 15:56:43 10° NNW 16:00:46 46° W 16:04:49 10° SSW
Cosmos 1980 Rocket 2.3 15:55:19 10° SSW 16:00:58 90° WNW 16:06:38 10° NNE
Cosmos 1975 4.4 16:00:47 10° SSW 16:04:36 41° W 16:08:26 10° NNW
KORONAS-FOTON 4.0 16:00:54 10° N 16:04:38 49° E 16:08:20 10° SSE
OAO 3 Copernicus 4.4 16:01:33 10° WSW 16:06:35 85° NNW 16:11:38 10° ENE
SEDSat Delta rocket 4.4 16:00:58 10° W 16:06:47 55° NNW 16:13:16 10° ENE
Cosmos 2369 4.1 16:02:56 10° SSW 16:08:38 70° WNW 16:14:20 10° NNE
CZ-4 R/B 3.2 16:08:23 10° ESE 16:10:35 14° ENE 16:12:48 10° NE
Cosmos 2297 Rocket 2.2 16:06:16 10° NNW 16:11:57 90° WSW 16:17:35 10° SSE
CZ-4B DEB 4.1 16:09:37 10° SSE 16:15:02 76° ENE 16:20:28 10° N
Cosmos 1707 3.0 16:11:27 10° N 16:15:14 69° W 16:19:00 10° S
Cosmos 2278 3.7 16:10:29 10° S 16:16:04 60° ESE 16:21:39 10° NNE
OAO 2 Rocket 4.3 16:11:40 10° W 16:16:16 39° NNW 16:20:53 10° NE
Cosmos 1626 1.9 16:13:52 10° N 16:17:28 70° E 16:21:03 10° SSE
Cosmos 1763 Rocket 3.6 16:13:12 10° N 16:18:07 50° ENE 16:23:03 10° SSE
Meteor 2-10 4.2 16:12:39 10° S 16:18:17 64° E 16:23:52 10° NNE
COSMO-SKYMED 1 4.4 16:14:39 10° N 16:18:36 35° WNW 16:22:32 10° SW
ATLAS 3B R/B 4.4 16:11:53 10° NW 16:18:54 40° WSW 16:25:56 10° S
Okean 2 3.6 16:15:07 10° N 16:19:07 48° E 16:23:05 10° SSE
SL-16 R/B 3.1 16:15:03 10° SSE 16:19:35 25° ESE 16:24:09 10° NE
CZ-4 R/B 4.3 16:15:50 10° SSE 16:19:55 74° ENE 16:24:00 10° N
DMSP B5D1-3 4.5 16:21:38 10° NNE 16:26:43 67° ESE 16:31:47 10° S
Cosmos 1741 Rocket 4.5 16:22:55 10° SSW 16:28:10 66° WNW 16:33:25 10° N
BREEZE-M DEB (TANK) 2.0 16:27:52 10° SSW 16:30:06 49° SE 16:31:19 24° ENE
Cosmos 1437 Rocket 3.7 16:29:06 10° SSE 16:32:10 23° E 16:33:10 21° ENE
Nadezhda 4 Rocket 4.1 16:27:14 10° SSE 16:33:20 53° E 16:39:27 10° NNE
Meteor 2-21 4.3 16:30:36 10° S 16:36:36 72° E 16:42:36 10° N
Okean O Rocket 2.0 16:34:12 10° SE 16:38:12 38° ENE 16:42:14 10° N
Cosmos 1809 Rocket 4.5 16:32:48 10° S 16:38:52 84° W 16:44:58 10° N
Cosmos 1908 Rocket 3.9 16:35:01 10° SSE 16:39:05 41° E 16:43:08 10° NNE
IRIDIUM 103 4.3 16:35:01 10° SSE 16:40:06 59° E 16:45:13 10° N
OE (NEXTSAT) 4.1 16:44:13 10° NW 16:47:24 80° SW 16:48:19 43° SE
Fermi 4.1 16:43:55 10° W 16:47:59 57° SSW 16:49:36 32° SE
Meteor 1-15 Rocket 4.2 16:43:29 10° S 16:48:56 55° E 16:54:21 10° NNE
Helios 1B 4.4 16:44:53 10° NNE 16:49:13 77° ESE 16:53:30 10° S
Cosmos 2219 3.3 16:43:55 10° NNW 16:49:41 84° WSW 16:55:24 10° SSE
COBE Rocket 3.9 16:47:06 10° SSE 16:52:07 89° W 16:57:00 10° N
GPS 2-17 Rocket1 4.0 16:48:32 10° SW 16:52:14 28° SSE 16:53:01 26° SSE
YAOGAN 1 2.4 16:48:00 10° SSE 16:52:17 79° ENE 16:56:36 10° N
USA 267 3.3 16:48:42 22° ESE 16:53:01 59° NE 16:59:27 10° NNW
GENESIS II 4.1 16:51:32 10° NNW 16:55:35 90° ESE 16:57:28 30° SSE
CZ-2C R/B 2.3 16:53:01 10° NW 16:55:40 24° NNE 16:55:40 24° NNE
Landsat 5 3.5 16:51:46 10° NNE 16:56:11 59° E 17:00:29 10° S
Cosmos 2263 Rocket 3.2 16:52:32 10° N 16:56:55 27° ENE 16:56:55 27° ENE
Cosmos 1726 3.3 16:54:26 10° SSW 16:57:53 43° W 17:01:22 10° N
IRIDIUM 106 4.3 16:53:09 10° S 16:58:21 87° W 17:03:35 10° N
SL-14 R/B 3.1 16:57:56 10° N 17:01:55 83° E 17:04:25 22° S
Cosmos 1674 Rocket 3.4 17:00:25 10° N 17:04:49 72° E 17:06:51 31° SSE
GPS 2-14 Rocket1 3.4 17:02:13 10° WSW 17:05:46 38° S 17:05:58 37° S
Cosmos 1766 4.2 17:03:19 10° SSW 17:07:03 47° W 17:10:49 10° N
Cosmos 2082 3.6 17:02:56 10° NNW 17:08:39 71° ENE 17:11:15 33° SSE
Cosmos 2360 Rocket 4.2 17:05:03 10° SSE 17:05:42 13° SSE 17:05:42 13° SSE
Cosmos 1092 Rocket 4.0 17:04:05 10° S 17:10:16 59° E 17:16:27 10° NNE
Delta 198 4.4 17:11:55 10° W 17:18:50 81° S 17:20:29 54° ESE
Cosmos 968 Rocket 4.0 17:18:15 10° SSW 17:23:25 60° WNW 17:28:36 10° N
Cosmos 2237 4.0 17:19:14 10° SSW 17:24:55 81° ESE 17:27:34 33° NNE
ATLAS 5 CENTAUR R/B 3.3 16:56:01 10° WSW 17:31:28 61° S 17:34:31 45° ESE
Cosmos 2322 Rocket 2.1 17:30:16 10° SSW 17:35:57 83° WNW 17:37:34 49° N
Hubble Space Telescope 2.3 17:34:54 10° WNW 17:37:20 34° WNW 17:37:20 34° WNW
USA 229 DEB 4.0 17:31:28 10° NNW 17:39:14 82° WSW 17:42:21 42° SSE
USA 229 4.0 17:31:34 10° NNW 17:39:20 83° WSW 17:42:21 43° SSE
CZ-4 R/B 3.3 17:43:52 24° SW 17:45:10 28° W 17:48:47 10° NW
Cosmos 841 Rocket 4.3 17:46:59 10° NNW 17:51:52 46° WSW 17:51:58 46° WSW
SL-16 R/B 4.0 17:58:37 10° SW 18:03:27 29° WNW 18:08:18 10° N
Cosmos 2263 Rocket 4.4 18:36:19 10° NW 18:38:39 20° WNW 18:38:39 20° WNW
